Time,TemperatureF,DewpointF,PressureIn,WindDirection,WindDirectionDegrees,WindSpeedMPH,WindSpeedGustMPH,Humidity,HourlyPrecipIn,Conditions,Clouds,dailyrainin,SoftwareType,DateUTC
2013-03-30 00:05:00,56.5,36.0,30.03,WNW,293,0.0,0.0,46,0.00,,,0.00,HomebrewedOnLinux,2013-03-30 04:05:00,
2013-03-30 00:10:00,56.3,35.8,30.00,WNW,293,0.0,0.0,46,0.00,,,0.00,HomebrewedOnLinux,2013-03-30 04:10:00,
2013-03-30 00:15:00,56.3,35.8,30.00,WNW,293,0.0,0.0,46,0.00,,,0.00,HomebrewedOnLinux,2013-03-30 04:15:00,
2013-03-30 00:20:00,56.1,35.6,30.00,WNW,291,0.0,0.0,46,0.00,,,0.00,HomebrewedOnLinux,2013-03-30 04:20:00,
2013-03-30 00:30:00,55.9,36.0,30.03,West,273,0.0,0.0,47,0.00,,,0.00,HomebrewedOnLinux,2013-03-30 04:30:00,
2013-03-30 00:40:00,55.6,35.7,30.03,West,280,0.0,0.0,47,0.00,,,0.00,HomebrewedOnLinux,2013-03-30 04:40:00,
2013-03-30 00:45:00,55.6,36.1,30.03,West,270,0.0,0.0,48,0.00,,,0.00,HomebrewedOnLinux,2013-03-30 04:45:00,
2013-03-30 00:50:00,55.4,36.0,30.03,West,270,0.0,0.0,48,0.00,,,0.00,HomebrewedOnLinux,2013-03-30 04:50:00,
2013-03-30 00:55:00,55.2,36.3,30.03,West,270,0.0,0.0,49,0.00,,,0.00,HomebrewedOnLinux,2013-03-30 04:55:00,
2013-03-30 01:00:00,55.0,36.1,30.03,West,273,0.0,0.0,49,0.00,,,0.00,HomebrewedOnLinux,2013-03-30 05:00:00,
2013-03-30 01:05:00,54.9,36.1,30.03,West,270,0.0,0.0,49,0.00,,,0.00,HomebrewedOnLinux,2013-03-30 05:05:00,
2013-03-30 01:15:00,54.9,36.3,30.00,West,270,0.0,0.0,49,0.00,,,0.00,HomebrewedOnLinux,2013-03-30 05:15:00,
2013-03-30 01:20:00,54.9,36.5,30.00,WNW,282,0.0,0.0,50,0.00,,,0.00,HomebrewedOnLinux,2013-03-30 05:20:00,
2013-03-30 01:25:00,54.7,36.0,30.00,West,279,0.0,0.0,49,0.00,,,0.00,HomebrewedOnLinux,2013-03-30 05:25:00,
2013-03-30 01:30:00,54.7,36.3,30.00,West,270,0.0,0.0,50,0.00,,,0.00,HomebrewedOnLinux,2013-03-30 05:30:00,
2013-03-30 01:35:00,54.7,36.3,30.00,West,272,0.0,0.0,50,0.00,,,0.00,HomebrewedOnLinux,2013-03-30 05:35:00,
2013-03-30 01:40:00,54.5,36.2,29.97,WNW,293,0.0,0.0,50,0.00,,,0.00,HomebrewedOnLinux,2013-03-30 05:40:00,
2013-03-30 01:50:00,54.5,36.2,29.97,WNW,293,0.0,0.0,50,0.00,,,0.00,HomebrewedOnLinux,2013-03-30 05:50:00,
2013-03-30 02:00:00,54.5,36.2,29.97,WNW,300,0.0,0.0,50,0.00,,,0.00,HomebrewedOnLinux,2013-03-30 06:00:00,
2013-03-30 02:05:00,54.5,36.2,29.97,NNW,348,0.0,0.0,50,0.00,,,0.00,HomebrewedOnLinux,2013-03-30 06:05:00,
2013-03-30 02:10:00,54.5,36.2,29.97,WNW,293,0.0,0.0,50,0.00,,,0.00,HomebrewedOnLinux,2013-03-30 06:10:00,
2013-03-30 02:20:00,54.5,36.7,29.97,WNW,284,0.0,0.0,51,0.00,,,0.00,HomebrewedOnLinux,2013-03-30 06:20:00,
2013-03-30 02:25:00,54.5,36.7,29.97,SW,235,0.0,0.0,51,0.00,,,0.00,HomebrewedOnLinux,2013-03-30 06:25:00,
2013-03-30 02:30:00,54.5,36.7,29.97,WSW,255,0.0,0.0,51,0.00,,,0.00,HomebrewedOnLinux,2013-03-30 06:30:00,
2013-03-30 02:35:00,54.5,36.7,29.97,West,261,0.0,0.0,51,0.00,,,0.00,HomebrewedOnLinux,2013-03-30 06:35:00,
2013-03-30 02:40:00,54.5,36.7,29.97,NW,304,0.0,0.0,51,0.00,,,0.00,HomebrewedOnLinux,2013-03-30 06:40:00,
2013-03-30 02:45:00,54.5,36.7,29.97,WNW,298,0.0,0.0,51,0.00,,,0.00,HomebrewedOnLinux,2013-03-30 06:45:00,
2013-03-30 02:50:00,54.5,37.2,29.97,West,270,0.0,0.0,52,0.00,,,0.00,HomebrewedOnLinux,2013-03-30 06:50:00,
2013-03-30 03:00:00,54.7,37.4,29.94,WNW,283,0.0,2.0,52,0.00,,,0.00,HomebrewedOnLinux,2013-03-30 07:00:00,
2013-03-30 03:10:00,54.5,37.2,29.97,West,265,0.0,1.0,52,0.00,,,0.00,HomebrewedOnLinux,2013-03-30 07:10:00,
2013-03-30 03:15:00,54.5,37.2,29.97,West,271,1.0,4.0,52,0.00,,,0.00,HomebrewedOnLinux,2013-03-30 07:15:00,
2013-03-30 03:25:00,54.7,37.4,29.97,West,261,2.0,4.0,52,0.00,,,0.00,HomebrewedOnLinux,2013-03-30 07:25:00,
2013-03-30 03:30:00,54.5,37.2,29.97,West,268,0.0,2.0,52,0.00,,,0.00,HomebrewedOnLinux,2013-03-30 07:30:00,
2013-03-30 03:35:00,54.5,37.2,29.97,West,273,0.0,3.0,52,0.00,,,0.00,HomebrewedOnLinux,2013-03-30 07:35:00,
2013-03-30 03:40:00,54.5,37.3,29.97,West,269,1.0,3.0,52,0.00,,,0.00,HomebrewedOnLinux,2013-03-30 07:40:00,
2013-03-30 03:45:00,54.5,37.2,29.97,WSW,257,0.0,1.0,52,0.00,,,0.00,HomebrewedOnLinux,2013-03-30 07:45:00,
2013-03-30 03:50:00,54.5,37.6,29.97,WSW,239,0.0,0.0,53,0.00,,,0.00,HomebrewedOnLinux,2013-03-30 07:50:00,
2013-03-30 03:55:00,54.5,37.5,29.94,West,262,1.0,2.0,52,0.00,,,0.00,HomebrewedOnLinux,2013-03-30 07:55:00,
2013-03-30 04:00:00,54.5,37.5,29.94,West,259,0.0,3.0,53,0.00,,,0.00,HomebrewedOnLinux,2013-03-30 08:00:00,
2013-03-30 04:10:00,54.5,37.7,29.94,West,273,0.0,2.0,53,0.00,,,0.00,HomebrewedOnLinux,2013-03-30 08:10:00,
2013-03-30 04:20:00,54.3,38.0,29.94,West,276,0.0,0.0,54,0.00,,,0.00,HomebrewedOnLinux,2013-03-30 08:20:00,
2013-03-30 04:25:00,54.3,38.0,29.94,WNW,293,0.0,0.0,54,0.00,,,0.00,HomebrewedOnLinux,2013-03-30 08:25:00,
2013-03-30 04:30:00,54.1,37.9,29.94,West,281,0.0,0.0,54,0.00,,,0.00,HomebrewedOnLinux,2013-03-30 08:30:00,
2013-03-30 04:40:00,54.1,38.1,29.94,West,263,1.0,4.0,54,0.00,,,0.00,HomebrewedOnLinux,2013-03-30 08:40:00,
2013-03-30 04:45:00,54.1,38.3,29.94,West,264,1.0,2.0,55,0.00,,,0.00,HomebrewedOnLinux,2013-03-30 08:45:00,
2013-03-30 04:50:00,54.0,38.4,29.94,WNW,297,0.0,0.0,56,0.00,,,0.00,HomebrewedOnLinux,2013-03-30 08:50:00,
2013-03-30 04:55:00,54.0,38.6,29.94,WSW,254,0.0,2.0,56,0.00,,,0.00,HomebrewedOnLinux,2013-03-30 08:55:00,
2013-03-30 05:00:00,54.0,38.6,29.94,WSW,248,1.0,2.0,56,0.00,,,0.00,HomebrewedOnLinux,2013-03-30 09:00:00,
2013-03-30 05:05:00,53.8,38.5,29.94,WSW,241,0.0,0.0,56,0.00,,,0.00,HomebrewedOnLinux,2013-03-30 09:05:00,
2013-03-30 05:10:00,53.8,38.7,29.94,WSW,258,0.0,1.0,57,0.00,,,0.00,HomebrewedOnLinux,2013-03-30 09:10:00,
2013-03-30 05:20:00,53.6,38.8,29.94,West,280,0.0,0.0,57,0.00,,,0.00,HomebrewedOnLinux,2013-03-30 09:20:00,
2013-03-30 05:25:00,53.6,39.2,29.94,West,270,0.0,0.0,58,0.00,,,0.00,HomebrewedOnLinux,2013-03-30 09:25:00,
2013-03-30 05:30:00,53.6,39.2,29.94,West,270,0.0,0.0,58,0.00,,,0.00,HomebrewedOnLinux,2013-03-30 09:30:00,
2013-03-30 05:35:00,53.4,39.3,29.94,West,281,0.0,0.0,59,0.00,,,0.00,HomebrewedOnLinux,2013-03-30 09:35:00,
2013-03-30 05:45:00,53.4,39.5,29.94,West,278,0.0,0.0,59,0.00,,,0.00,HomebrewedOnLinux,2013-03-30 09:45:00,
2013-03-30 05:50:00,53.2,39.3,29.94,North,-999,-999.0,-999.0,59,0.00,,,0.00,HomebrewedOnLinux,2013-03-30 09:50:00,
2013-03-30 05:55:00,53.2,39.7,29.94,SSE,158,0.0,0.0,60,0.00,,,0.00,HomebrewedOnLinux,2013-03-30 09:55:00,
2013-03-30 06:00:00,53.2,39.7,29.94,SSE,158,0.0,0.0,60,0.00,,,0.00,HomebrewedOnLinux,2013-03-30 10:00:00,
2013-03-30 06:05:00,53.1,39.8,29.94,SSE,158,0.0,0.0,61,0.00,,,0.00,HomebrewedOnLinux,2013-03-30 10:05:00,
2013-03-30 06:10:00,53.1,39.5,29.94,NW,324,0.0,0.0,60,0.00,,,0.00,HomebrewedOnLinux,2013-03-30 10:10:00,
2013-03-30 06:15:00,52.9,39.8,29.94,WNW,287,0.0,0.0,61,0.00,,,0.00,HomebrewedOnLinux,2013-03-30 10:15:00,
2013-03-30 06:20:00,52.9,39.8,29.94,WNW,284,0.0,0.0,61,0.00,,,0.00,HomebrewedOnLinux,2013-03-30 10:20:00,
2013-03-30 06:30:00,53.1,40.4,29.94,SW,232,0.0,0.0,62,0.00,,,0.00,HomebrewedOnLinux,2013-03-30 10:30:00,
2013-03-30 06:35:00,52.9,39.9,29.94,WSW,247,0.0,0.0,61,0.00,,,0.00,HomebrewedOnLinux,2013-03-30 10:35:00,
2013-03-30 06:40:00,52.7,40.1,29.94,WNW,293,0.0,0.0,62,0.00,,,0.00,HomebrewedOnLinux,2013-03-30 10:40:00,
2013-03-30 06:50:00,52.7,40.4,29.94,NNW,338,0.0,0.0,63,0.00,,,0.00,HomebrewedOnLinux,2013-03-30 10:50:00,
2013-03-30 06:55:00,52.7,40.4,29.94,ENE,59,0.0,0.0,63,0.00,,,0.00,HomebrewedOnLinux,2013-03-30 10:55:00,
2013-03-30 07:00:00,52.5,40.3,29.94,WNW,296,0.0,0.0,63,0.00,,,0.00,HomebrewedOnLinux,2013-03-30 11:00:00,
2013-03-30 07:05:00,52.5,40.4,29.94,NNW,338,0.0,0.0,63,0.00,,,0.00,HomebrewedOnLinux,2013-03-30 11:05:00,
2013-03-30 07:10:00,52.5,40.5,29.94,NW,317,0.0,0.0,63,0.00,,,0.00,HomebrewedOnLinux,2013-03-30 11:10:00,
2013-03-30 07:15:00,52.5,40.6,29.94,WNW,293,0.0,0.0,64,0.00,,,0.00,HomebrewedOnLinux,2013-03-30 11:15:00,
2013-03-30 07:20:00,52.3,40.5,29.94,WNW,293,0.0,0.0,64,0.00,,,0.00,HomebrewedOnLinux,2013-03-30 11:20:00,
2013-03-30 07:25:00,52.3,40.7,29.94,WNW,293,0.0,0.0,64,0.00,,,0.00,HomebrewedOnLinux,2013-03-30 11:25:00,
2013-03-30 07:30:00,52.2,40.8,29.94,WNW,293,0.0,0.0,65,0.00,,,0.00,HomebrewedOnLinux,2013-03-30 11:30:00,
2013-03-30 07:35:00,52.2,40.4,29.94,WNW,293,0.0,0.0,64,0.00,,,0.00,HomebrewedOnLinux,2013-03-30 11:35:00,
2013-03-30 07:40:00,52.2,40.8,29.97,NW,315,0.0,0.0,65,0.00,,,0.00,HomebrewedOnLinux,2013-03-30 11:40:00,
2013-03-30 07:45:00,52.2,41.1,29.97,NW,315,0.0,0.0,66,0.00,,,0.00,HomebrewedOnLinux,2013-03-30 11:45:00,
2013-03-30 07:50:00,52.2,41.2,29.97,NW,315,0.0,0.0,66,0.00,,,0.00,HomebrewedOnLinux,2013-03-30 11:50:00,
2013-03-30 08:00:00,51.8,40.8,29.97,North,0,0.0,0.0,66,0.00,,,0.00,HomebrewedOnLinux,2013-03-30 12:00:00,
2013-03-30 08:05:00,51.8,40.8,29.97,North,0,0.0,0.0,66,0.00,,,0.00,HomebrewedOnLinux,2013-03-30 12:05:00,
2013-03-30 08:10:00,51.8,41.1,29.97,NNW,337,0.0,0.0,67,0.00,,,0.00,HomebrewedOnLinux,2013-03-30 12:10:00,
2013-03-30 08:15:00,51.6,41.2,29.97,NNW,337,0.0,0.0,67,0.00,,,0.00,HomebrewedOnLinux,2013-03-30 12:15:00,
2013-03-30 08:20:00,51.6,41.3,29.97,NNW,338,0.0,0.0,68,0.00,,,0.00,HomebrewedOnLinux,2013-03-30 12:20:00,
2013-03-30 08:25:00,52.0,41.4,29.97,North,-999,-999.0,-999.0,67,0.00,,,0.00,HomebrewedOnLinux,2013-03-30 12:25:00,
2013-03-30 08:30:00,52.0,41.4,29.97,North,-999,-999.0,-999.0,67,0.00,,,0.00,HomebrewedOnLinux,2013-03-30 12:30:00,
2013-03-30 08:35:00,52.2,41.9,29.97,North,-999,-999.0,-999.0,68,0.00,,,0.00,HomebrewedOnLinux,2013-03-30 12:35:00,
2013-03-30 08:40:00,52.3,42.1,29.97,North,-999,-999.0,-999.0,68,0.00,,,0.00,HomebrewedOnLinux,2013-03-30 12:40:00,
2013-03-30 08:45:00,52.5,42.6,29.97,North,-999,-999.0,-999.0,69,0.00,,,0.00,HomebrewedOnLinux,2013-03-30 12:45:00,
2013-03-30 08:50:00,52.9,42.9,29.97,NW,315,0.0,0.0,69,0.00,,,0.00,HomebrewedOnLinux,2013-03-30 12:50:00,
2013-03-30 08:55:00,53.1,43.0,29.97,NW,315,0.0,0.0,69,0.00,,,0.00,HomebrewedOnLinux,2013-03-30 12:55:00,
2013-03-30 09:00:00,53.2,43.0,29.97,NW,315,0.0,0.0,68,0.00,,,0.00,HomebrewedOnLinux,2013-03-30 13:00:00,
2013-03-30 09:05:00,53.6,43.1,29.97,North,-999,-999.0,-999.0,67,0.00,,,0.00,HomebrewedOnLinux,2013-03-30 13:05:00,
2013-03-30 09:10:00,54.0,43.3,29.97,South,173,0.0,2.0,67,0.00,,,0.00,HomebrewedOnLinux,2013-03-30 13:10:00,
2013-03-30 09:15:00,54.5,43.2,29.97,SSE,165,0.0,1.0,66,0.00,,,0.00,HomebrewedOnLinux,2013-03-30 13:15:00,
2013-03-30 09:20:00,54.9,43.3,29.97,East,83,0.0,0.0,65,0.00,,,0.00,HomebrewedOnLinux,2013-03-30 13:20:00,
2013-03-30 09:25:00,55.2,43.3,29.97,ESE,104,1.0,2.0,64,0.00,,,0.00,HomebrewedOnLinux,2013-03-30 13:25:00,
2013-03-30 09:30:00,55.6,43.2,29.97,ENE,61,0.0,2.0,63,0.00,,,0.00,HomebrewedOnLinux,2013-03-30 13:30:00,
2013-03-30 09:35:00,55.9,43.5,29.97,East,81,0.0,3.0,63,0.00,,,0.00,HomebrewedOnLinux,2013-03-30 13:35:00,
2013-03-30 09:40:00,56.3,43.8,29.97,North,2,0.0,2.0,63,0.00,,,0.00,HomebrewedOnLinux,2013-03-30 13:40:00,
2013-03-30 09:45:00,56.5,43.6,29.97,South,186,0.0,0.0,62,0.00,,,0.00,HomebrewedOnLinux,2013-03-30 13:45:00,
2013-03-30 09:50:00,56.8,43.8,29.97,SE,136,0.0,2.0,62,0.00,,,0.00,HomebrewedOnLinux,2013-03-30 13:50:00,
2013-03-30 09:55:00,57.0,43.5,29.97,SE,140,0.0,0.0,60,0.00,,,0.00,HomebrewedOnLinux,2013-03-30 13:55:00,
2013-03-30 10:00:00,57.4,43.5,29.97,SSE,156,0.0,2.0,60,0.00,,,0.00,HomebrewedOnLinux,2013-03-30 14:00:00,
2013-03-30 10:05:00,57.7,43.5,29.97,ESE,123,1.0,2.0,59,0.00,,,0.00,HomebrewedOnLinux,2013-03-30 14:05:00,
2013-03-30 10:10:00,57.9,43.4,29.97,ESE,121,0.0,3.0,58,0.00,,,0.00,HomebrewedOnLinux,2013-03-30 14:10:00,
2013-03-30 10:15:00,58.1,43.1,29.97,ENE,63,1.0,2.0,57,0.00,,,0.00,HomebrewedOnLinux,2013-03-30 14:15:00,
2013-03-30 10:20:00,58.3,42.9,29.97,East,87,2.0,3.0,56,0.00,,,0.00,HomebrewedOnLinux,2013-03-30 14:20:00,
2013-03-30 10:25:00,58.8,43.1,29.97,East,93,0.0,1.0,56,0.00,,,0.00,HomebrewedOnLinux,2013-03-30 14:25:00,
2013-03-30 10:30:00,59.2,42.9,29.97,SE,124,2.0,4.0,55,0.00,,,0.00,HomebrewedOnLinux,2013-03-30 14:30:00,
2013-03-30 10:35:00,59.5,42.8,29.97,East,96,2.0,3.0,54,0.00,,,0.00,HomebrewedOnLinux,2013-03-30 14:35:00,
2013-03-30 10:40:00,59.7,42.6,29.97,East,95,2.0,3.0,53,0.00,,,0.00,HomebrewedOnLinux,2013-03-30 14:40:00,
2013-03-30 10:45:00,60.3,43.0,29.97,ENE,65,3.0,5.0,53,0.00,,,0.00,HomebrewedOnLinux,2013-03-30 14:45:00,
2013-03-30 10:50:00,60.6,42.7,29.97,ENE,61,1.0,2.0,52,0.00,,,0.00,HomebrewedOnLinux,2013-03-30 14:50:00,
2013-03-30 10:55:00,61.2,42.9,29.97,ENE,69,0.0,2.0,51,0.00,,,0.00,HomebrewedOnLinux,2013-03-30 14:55:00,
2013-03-30 11:00:00,62.1,43.7,29.97,SE,125,3.0,4.0,51,0.00,,,0.00,HomebrewedOnLinux,2013-03-30 15:00:00,
2013-03-30 11:05:00,62.2,43.6,29.97,ESE,119,1.0,2.0,50,0.00,,,0.00,HomebrewedOnLinux,2013-03-30 15:05:00,
2013-03-30 11:10:00,62.2,43.4,29.94,NE,45,2.0,4.0,50,0.00,,,0.00,HomebrewedOnLinux,2013-03-30 15:10:00,
2013-03-30 11:15:00,62.4,43.5,29.94,ENE,65,0.0,2.0,50,0.00,,,0.00,HomebrewedOnLinux,2013-03-30 15:15:00,
2013-03-30 11:20:00,62.6,43.3,29.94,SE,130,1.0,2.0,49,0.00,,,0.00,HomebrewedOnLinux,2013-03-30 15:20:00,
2013-03-30 11:25:00,63.3,43.8,29.94,East,99,2.0,3.0,49,0.00,,,0.00,HomebrewedOnLinux,2013-03-30 15:25:00,
2013-03-30 11:30:00,63.7,43.9,29.94,ESE,102,3.0,3.0,49,0.00,,,0.00,HomebrewedOnLinux,2013-03-30 15:30:00,
2013-03-30 11:35:00,63.7,43.6,29.94,NE,45,0.0,3.0,48,0.00,,,0.00,HomebrewedOnLinux,2013-03-30 15:35:00,
2013-03-30 11:45:00,64.2,43.7,29.97,NNE,17,0.0,0.0,47,0.00,,,0.00,HomebrewedOnLinux,2013-03-30 15:45:00,
2013-03-30 11:50:00,64.4,43.6,29.97,North,8,0.0,0.0,47,0.00,,,0.00,HomebrewedOnLinux,2013-03-30 15:50:00,
2013-03-30 11:55:00,64.6,43.4,29.97,North,359,0.0,0.0,46,0.00,,,0.00,HomebrewedOnLinux,2013-03-30 15:55:00,
2013-03-30 12:00:00,65.3,44.2,29.97,ESE,113,0.0,2.0,46,0.00,,,0.00,HomebrewedOnLinux,2013-03-30 16:00:00,
2013-03-30 12:05:00,65.8,44.5,29.97,ESE,123,0.0,3.0,46,0.00,,,0.00,HomebrewedOnLinux,2013-03-30 16:05:00,
2013-03-30 12:10:00,66.2,44.7,29.97,ESE,103,2.0,4.0,46,0.00,,,0.00,HomebrewedOnLinux,2013-03-30 16:10:00,
2013-03-30 12:15:00,66.6,44.7,29.97,East,95,2.0,3.0,45,0.00,,,0.00,HomebrewedOnLinux,2013-03-30 16:15:00,
2013-03-30 12:20:00,66.9,44.8,29.97,North,5,0.0,3.0,45,0.00,,,0.00,HomebrewedOnLinux,2013-03-30 16:20:00,
2013-03-30 12:25:00,66.9,43.8,29.97,North,353,0.0,2.0,43,0.00,,,0.00,HomebrewedOnLinux,2013-03-30 16:25:00,
2013-03-30 12:30:00,66.9,44.2,29.97,NW,321,1.0,2.0,44,0.00,,,0.00,HomebrewedOnLinux,2013-03-30 16:30:00,
2013-03-30 12:35:00,66.9,43.7,29.97,WNW,295,0.0,3.0,43,0.00,,,0.00,HomebrewedOnLinux,2013-03-30 16:35:00,
2013-03-30 12:40:00,67.1,44.2,29.97,NW,307,0.0,0.0,44,0.00,,,0.00,HomebrewedOnLinux,2013-03-30 16:40:00,
2013-03-30 12:45:00,67.6,44.6,29.97,NE,38,1.0,2.0,43,0.00,,,0.00,HomebrewedOnLinux,2013-03-30 16:45:00,
2013-03-30 12:50:00,68.0,44.5,29.97,NNE,17,1.0,4.0,43,0.00,,,0.00,HomebrewedOnLinux,2013-03-30 16:50:00,
2013-03-30 12:55:00,68.5,44.9,29.94,WNW,284,1.0,3.0,43,0.00,,,0.00,HomebrewedOnLinux,2013-03-30 16:55:00,
2013-03-30 13:00:00,69.3,45.3,29.94,SSE,163,1.0,2.0,42,0.00,,,0.00,HomebrewedOnLinux,2013-03-30 17:00:00,
2013-03-30 13:05:00,69.6,45.5,29.94,ENE,71,1.0,4.0,42,0.00,,,0.00,HomebrewedOnLinux,2013-03-30 17:05:00,
2013-03-30 13:10:00,69.4,45.1,29.94,NNW,336,0.0,1.0,42,0.00,,,0.00,HomebrewedOnLinux,2013-03-30 17:10:00,
2013-03-30 13:15:00,69.1,45.0,29.94,East,96,1.0,3.0,42,0.00,,,0.00,HomebrewedOnLinux,2013-03-30 17:15:00,
2013-03-30 13:20:00,69.3,44.7,29.94,South,173,1.0,4.0,41,0.00,,,0.00,HomebrewedOnLinux,2013-03-30 17:20:00,
2013-03-30 13:25:00,69.6,45.2,29.94,SE,141,1.0,2.0,42,0.00,,,0.00,HomebrewedOnLinux,2013-03-30 17:25:00,
2013-03-30 13:30:00,69.4,44.7,29.94,NW,316,2.0,4.0,41,0.00,,,0.00,HomebrewedOnLinux,2013-03-30 17:30:00,
2013-03-30 13:35:00,69.8,44.6,29.94,East,99,2.0,3.0,40,0.00,,,0.00,HomebrewedOnLinux,2013-03-30 17:35:00,
2013-03-30 13:40:00,70.0,44.7,29.91,ENE,62,0.0,3.0,40,0.00,,,0.00,HomebrewedOnLinux,2013-03-30 17:40:00,
2013-03-30 13:45:00,70.3,44.6,29.91,NW,315,0.0,1.0,40,0.00,,,0.00,HomebrewedOnLinux,2013-03-30 17:45:00,
2013-03-30 13:50:00,70.7,44.7,29.91,NNE,18,0.0,2.0,39,0.00,,,0.00,HomebrewedOnLinux,2013-03-30 17:50:00,
2013-03-30 13:55:00,71.1,44.8,29.91,NNW,335,1.0,2.0,39,0.00,,,0.00,HomebrewedOnLinux,2013-03-30 17:55:00,
2013-03-30 14:00:00,71.8,45.2,29.91,ESE,102,2.0,4.0,39,0.00,,,0.00,HomebrewedOnLinux,2013-03-30 18:00:00,
2013-03-30 14:05:00,72.3,45.7,29.91,NNE,29,0.0,1.0,39,0.00,,,0.00,HomebrewedOnLinux,2013-03-30 18:05:00,
2013-03-30 14:10:00,72.3,45.0,29.91,North,351,0.0,2.0,38,0.00,,,0.00,HomebrewedOnLinux,2013-03-30 18:10:00,
2013-03-30 14:15:00,72.3,45.1,29.91,NNW,332,0.0,2.0,38,0.00,,,0.00,HomebrewedOnLinux,2013-03-30 18:15:00,
2013-03-30 14:20:00,72.7,45.3,29.91,West,275,1.0,3.0,38,0.00,,,0.00,HomebrewedOnLinux,2013-03-30 18:20:00,
2013-03-30 14:25:00,73.0,45.9,29.91,East,89,2.0,6.0,38,0.00,,,0.00,HomebrewedOnLinux,2013-03-30 18:25:00,
2013-03-30 14:30:00,73.0,45.6,29.91,ENE,68,3.0,5.0,38,0.00,,,0.00,HomebrewedOnLinux,2013-03-30 18:30:00,
2013-03-30 14:35:00,73.0,45.2,29.91,East,82,3.0,5.0,37,0.00,,,0.00,HomebrewedOnLinux,2013-03-30 18:35:00,
2013-03-30 14:40:00,73.8,45.3,29.91,East,80,2.0,3.0,36,0.00,,,0.00,HomebrewedOnLinux,2013-03-30 18:40:00,
2013-03-30 14:45:00,73.6,45.1,29.91,ENE,57,1.0,4.0,36,0.00,,,0.00,HomebrewedOnLinux,2013-03-30 18:45:00,
2013-03-30 14:50:00,73.4,44.8,29.91,North,11,1.0,4.0,36,0.00,,,0.00,HomebrewedOnLinux,2013-03-30 18:50:00,
2013-03-30 14:55:00,72.5,44.3,29.91,NW,313,1.0,3.0,36,0.00,,,0.00,HomebrewedOnLinux,2013-03-30 18:55:00,
2013-03-30 15:00:00,74.5,45.8,29.91,NE,40,1.0,3.0,36,0.00,,,0.00,HomebrewedOnLinux,2013-03-30 19:00:00,
2013-03-30 15:05:00,76.1,47.2,29.91,ENE,59,2.0,4.0,36,0.00,,,0.00,HomebrewedOnLinux,2013-03-30 19:05:00,
2013-03-30 15:10:00,75.4,46.4,29.88,NE,34,0.0,0.0,36,0.00,,,0.00,HomebrewedOnLinux,2013-03-30 19:10:00,
2013-03-30 15:15:00,75.4,46.6,29.88,NE,38,2.0,4.0,36,0.00,,,0.00,HomebrewedOnLinux,2013-03-30 19:15:00,
2013-03-30 15:20:00,74.5,45.8,29.88,NE,44,2.0,3.0,36,0.00,,,0.00,HomebrewedOnLinux,2013-03-30 19:20:00,
2013-03-30 15:25:00,73.6,45.0,29.88,ESE,114,1.0,3.0,36,0.00,,,0.00,HomebrewedOnLinux,2013-03-30 19:25:00,
2013-03-30 15:30:00,73.4,44.8,29.88,NNW,335,1.0,2.0,36,0.00,,,0.00,HomebrewedOnLinux,2013-03-30 19:30:00,
2013-03-30 15:35:00,73.6,45.0,29.88,East,90,0.0,2.0,36,0.00,,,0.00,HomebrewedOnLinux,2013-03-30 19:35:00,
2013-03-30 15:40:00,73.6,44.7,29.85,ESE,111,2.0,3.0,36,0.00,,,0.00,HomebrewedOnLinux,2013-03-30 19:40:00,
2013-03-30 15:45:00,73.6,45.0,29.85,NNE,26,1.0,4.0,36,0.00,,,0.00,HomebrewedOnLinux,2013-03-30 19:45:00,
2013-03-30 15:50:00,73.8,45.0,29.85,NW,326,0.0,0.0,36,0.00,,,0.00,HomebrewedOnLinux,2013-03-30 19:50:00,
2013-03-30 15:55:00,73.9,44.7,29.85,WNW,283,1.0,4.0,35,0.00,,,0.00,HomebrewedOnLinux,2013-03-30 19:55:00,
2013-03-30 16:00:00,73.9,44.7,29.85,WNW,296,1.0,3.0,35,0.00,,,0.00,HomebrewedOnLinux,2013-03-30 20:00:00,
2013-03-30 16:05:00,73.9,44.8,29.85,WSW,243,1.0,3.0,35,0.00,,,0.00,HomebrewedOnLinux,2013-03-30 20:05:00,
2013-03-30 16:10:00,73.8,44.4,29.85,NNW,345,0.0,2.0,35,0.00,,,0.00,HomebrewedOnLinux,2013-03-30 20:10:00,
2013-03-30 16:15:00,73.6,44.2,29.85,NE,39,1.0,3.0,35,0.00,,,0.00,HomebrewedOnLinux,2013-03-30 20:15:00,
2013-03-30 16:20:00,73.8,44.4,29.85,NW,318,1.0,3.0,35,0.00,,,0.00,HomebrewedOnLinux,2013-03-30 20:20:00,
2013-03-30 16:25:00,74.3,44.9,29.85,NE,35,0.0,0.0,35,0.00,,,0.00,HomebrewedOnLinux,2013-03-30 20:25:00,
2013-03-30 16:30:00,74.7,45.0,29.85,North,359,1.0,3.0,35,0.00,,,0.00,HomebrewedOnLinux,2013-03-30 20:30:00,
2013-03-30 16:35:00,74.7,44.6,29.85,North,349,1.0,3.0,34,0.00,,,0.00,HomebrewedOnLinux,2013-03-30 20:35:00,
2013-03-30 16:40:00,75.4,45.0,29.85,WNW,291,2.0,3.0,34,0.00,,,0.00,HomebrewedOnLinux,2013-03-30 20:40:00,
2013-03-30 16:45:00,75.6,45.2,29.85,North,8,1.0,3.0,34,0.00,,,0.00,HomebrewedOnLinux,2013-03-30 20:45:00,
2013-03-30 16:50:00,75.4,45.0,29.85,NW,310,1.0,4.0,34,0.00,,,0.00,HomebrewedOnLinux,2013-03-30 20:50:00,
2013-03-30 16:55:00,75.2,44.7,29.82,North,2,0.0,1.0,34,0.00,,,0.00,HomebrewedOnLinux,2013-03-30 20:55:00,
2013-03-30 17:00:00,75.2,44.9,29.82,ENE,68,2.0,3.0,34,0.00,,,0.00,HomebrewedOnLinux,2013-03-30 21:00:00,
2013-03-30 17:05:00,75.2,44.9,29.82,West,281,1.0,3.0,34,0.00,,,0.00,HomebrewedOnLinux,2013-03-30 21:05:00,
2013-03-30 17:15:00,75.2,44.3,29.85,NW,315,0.0,1.0,33,0.00,,,0.00,HomebrewedOnLinux,2013-03-30 21:15:00,
2013-03-30 17:20:00,75.2,44.3,29.85,NW,319,0.0,4.0,33,0.00,,,0.00,HomebrewedOnLinux,2013-03-30 21:20:00,
2013-03-30 17:25:00,74.8,44.6,29.82,NW,315,2.0,3.0,34,0.00,,,0.00,HomebrewedOnLinux,2013-03-30 21:25:00,
2013-03-30 17:30:00,74.5,44.3,29.82,NNE,22,1.0,3.0,34,0.00,,,0.00,HomebrewedOnLinux,2013-03-30 21:30:00,
2013-03-30 17:35:00,74.1,43.9,29.82,NW,323,0.0,0.0,34,0.00,,,0.00,HomebrewedOnLinux,2013-03-30 21:35:00,
2013-03-30 17:40:00,74.3,44.1,29.82,NW,310,0.0,0.0,34,0.00,,,0.00,HomebrewedOnLinux,2013-03-30 21:40:00,
2013-03-30 17:45:00,74.3,44.1,29.82,NNE,15,0.0,2.0,34,0.00,,,0.00,HomebrewedOnLinux,2013-03-30 21:45:00,
2013-03-30 17:50:00,74.5,44.3,29.82,ENE,75,1.0,3.0,34,0.00,,,0.00,HomebrewedOnLinux,2013-03-30 21:50:00,
2013-03-30 17:55:00,74.7,44.4,29.82,WSW,237,0.0,2.0,34,0.00,,,0.00,HomebrewedOnLinux,2013-03-30 21:55:00,
2013-03-30 18:00:00,75.0,44.6,29.82,North,355,0.0,2.0,34,0.00,,,0.00,HomebrewedOnLinux,2013-03-30 22:00:00,
2013-03-30 18:05:00,74.8,43.8,29.82,North,3,0.0,1.0,33,0.00,,,0.00,HomebrewedOnLinux,2013-03-30 22:05:00,
2013-03-30 18:10:00,74.7,43.6,29.82,NE,45,0.0,3.0,33,0.00,,,0.00,HomebrewedOnLinux,2013-03-30 22:10:00,
2013-03-30 18:15:00,74.5,43.5,29.82,NNE,17,0.0,1.0,33,0.00,,,0.00,HomebrewedOnLinux,2013-03-30 22:15:00,
2013-03-30 18:20:00,74.5,43.5,29.82,NE,36,0.0,0.0,33,0.00,,,0.00,HomebrewedOnLinux,2013-03-30 22:20:00,
2013-03-30 18:25:00,74.5,43.5,29.82,NNE,16,0.0,0.0,33,0.00,,,0.00,HomebrewedOnLinux,2013-03-30 22:25:00,
2013-03-30 18:30:00,74.3,43.3,29.82,NNW,341,0.0,0.0,33,0.00,,,0.00,HomebrewedOnLinux,2013-03-30 22:30:00,
2013-03-30 18:35:00,73.9,43.0,29.82,NNE,13,0.0,0.0,33,0.00,,,0.00,HomebrewedOnLinux,2013-03-30 22:35:00,
2013-03-30 18:40:00,73.6,42.7,29.82,NW,304,0.0,0.0,33,0.00,,,0.00,HomebrewedOnLinux,2013-03-30 22:40:00,
2013-03-30 18:45:00,73.0,43.0,29.82,North,-999,-999.0,-999.0,34,0.00,,,0.00,HomebrewedOnLinux,2013-03-30 22:45:00,
2013-03-30 18:50:00,72.9,42.8,29.82,North,-999,-999.0,-999.0,34,0.00,,,0.00,HomebrewedOnLinux,2013-03-30 22:50:00,
2013-03-30 18:55:00,72.5,42.5,29.82,North,-999,-999.0,-999.0,34,0.00,,,0.00,HomebrewedOnLinux,2013-03-30 22:55:00,
2013-03-30 19:00:00,72.0,42.1,29.82,WNW,293,0.0,0.0,34,0.00,,,0.00,HomebrewedOnLinux,2013-03-30 23:00:00,
2013-03-30 19:05:00,71.6,42.0,29.82,WNW,293,0.0,0.0,34,0.00,,,0.00,HomebrewedOnLinux,2013-03-30 23:05:00,
2013-03-30 19:10:00,71.1,42.0,29.82,WNW,293,0.0,0.0,35,0.00,,,0.00,HomebrewedOnLinux,2013-03-30 23:10:00,
2013-03-30 19:15:00,70.7,42.4,29.82,NW,315,0.0,0.0,36,0.00,,,0.00,HomebrewedOnLinux,2013-03-30 23:15:00,
2013-03-30 19:20:00,70.2,42.0,29.82,NW,315,0.0,0.0,36,0.00,,,0.00,HomebrewedOnLinux,2013-03-30 23:20:00,
2013-03-30 19:25:00,69.6,42.2,29.82,NW,309,0.0,0.0,37,0.00,,,0.00,HomebrewedOnLinux,2013-03-30 23:25:00,
2013-03-30 19:30:00,69.3,42.6,29.82,West,270,0.0,0.0,38,0.00,,,0.00,HomebrewedOnLinux,2013-03-30 23:30:00,
2013-03-30 19:35:00,68.9,42.6,29.82,West,270,0.0,0.0,39,0.00,,,0.00,HomebrewedOnLinux,2013-03-30 23:35:00,
2013-03-30 19:40:00,68.5,42.6,29.82,West,281,0.0,0.0,39,0.00,,,0.00,HomebrewedOnLinux,2013-03-30 23:40:00,
2013-03-30 19:45:00,68.2,42.9,29.82,WNW,293,0.0,0.0,40,0.00,,,0.00,HomebrewedOnLinux,2013-03-30 23:45:00,
2013-03-30 19:50:00,67.8,43.1,29.82,WNW,293,0.0,0.0,41,0.00,,,0.00,HomebrewedOnLinux,2013-03-30 23:50:00,
2013-03-30 19:55:00,67.6,43.1,29.82,WNW,283,0.0,0.0,41,0.00,,,0.00,HomebrewedOnLinux,2013-03-30 23:55:00,
2013-03-30 20:00:00,67.3,43.4,29.82,WNW,285,0.0,0.0,42,0.00,,,0.00,HomebrewedOnLinux,2013-03-31 00:00:00,
2013-03-30 20:05:00,67.1,43.7,29.82,WNW,293,0.0,0.0,43,0.00,,,0.00,HomebrewedOnLinux,2013-03-31 00:05:00,
2013-03-30 20:10:00,66.9,43.7,29.82,WNW,293,0.0,0.0,43,0.00,,,0.00,HomebrewedOnLinux,2013-03-31 00:10:00,
2013-03-30 20:15:00,66.6,43.4,29.82,WNW,293,0.0,0.0,43,0.00,,,0.00,HomebrewedOnLinux,2013-03-31 00:15:00,
2013-03-30 20:20:00,66.4,43.5,29.82,WNW,293,0.0,0.0,44,0.00,,,0.00,HomebrewedOnLinux,2013-03-31 00:20:00,
2013-03-30 20:25:00,66.2,43.8,29.82,WNW,293,0.0,0.0,44,0.00,,,0.00,HomebrewedOnLinux,2013-03-31 00:25:00,
2013-03-30 20:30:00,66.0,44.1,29.82,WNW,293,0.0,0.0,45,0.00,,,0.00,HomebrewedOnLinux,2013-03-31 00:30:00,
2013-03-30 20:35:00,65.8,43.9,29.82,WNW,293,0.0,0.0,45,0.00,,,0.00,HomebrewedOnLinux,2013-03-31 00:35:00,
2013-03-30 20:40:00,65.7,43.9,29.82,WNW,293,0.0,0.0,45,0.00,,,0.00,HomebrewedOnLinux,2013-03-31 00:40:00,
2013-03-30 20:45:00,65.5,44.1,29.82,WNW,293,0.0,0.0,46,0.00,,,0.00,HomebrewedOnLinux,2013-03-31 00:45:00,
2013-03-30 20:50:00,65.3,44.0,29.82,WNW,293,0.0,0.0,46,0.00,,,0.00,HomebrewedOnLinux,2013-03-31 00:50:00,
2013-03-30 20:55:00,65.1,44.3,29.82,WNW,293,0.0,0.0,47,0.00,,,0.00,HomebrewedOnLinux,2013-03-31 00:55:00,
2013-03-30 21:00:00,65.1,44.4,29.82,WNW,293,0.0,0.0,47,0.00,,,0.00,HomebrewedOnLinux,2013-03-31 01:00:00,
2013-03-30 21:05:00,64.9,44.8,29.82,WNW,293,0.0,0.0,48,0.00,,,0.00,HomebrewedOnLinux,2013-03-31 01:05:00,
2013-03-30 21:10:00,64.8,44.3,29.82,WNW,293,0.0,0.0,48,0.00,,,0.00,HomebrewedOnLinux,2013-03-31 01:10:00,
2013-03-30 21:15:00,64.8,44.5,29.82,WNW,293,0.0,0.0,48,0.00,,,0.00,HomebrewedOnLinux,2013-03-31 01:15:00,
2013-03-30 21:25:00,64.6,44.4,29.82,WNW,293,0.0,0.0,48,0.00,,,0.00,HomebrewedOnLinux,2013-03-31 01:25:00,
2013-03-30 21:30:00,64.4,44.7,29.82,WNW,293,0.0,0.0,49,0.00,,,0.00,HomebrewedOnLinux,2013-03-31 01:30:00,
2013-03-30 21:35:00,64.4,45.0,29.82,WNW,293,0.0,0.0,49,0.00,,,0.00,HomebrewedOnLinux,2013-03-31 01:35:00,
2013-03-30 21:40:00,64.2,45.1,29.82,WNW,293,0.0,0.0,50,0.00,,,0.00,HomebrewedOnLinux,2013-03-31 01:40:00,
2013-03-30 21:45:00,64.2,45.2,29.82,WNW,293,0.0,0.0,50,0.00,,,0.00,HomebrewedOnLinux,2013-03-31 01:45:00,
2013-03-30 21:50:00,64.0,45.0,29.82,WNW,293,0.0,0.0,50,0.00,,,0.00,HomebrewedOnLinux,2013-03-31 01:50:00,
2013-03-30 21:55:00,64.0,45.5,29.82,WNW,293,0.0,0.0,51,0.00,,,0.00,HomebrewedOnLinux,2013-03-31 01:55:00,
2013-03-30 22:00:00,63.9,45.5,29.82,WNW,293,0.0,0.0,51,0.00,,,0.00,HomebrewedOnLinux,2013-03-31 02:00:00,
2013-03-30 22:05:00,63.9,45.9,29.82,WNW,293,0.0,0.0,52,0.00,,,0.00,HomebrewedOnLinux,2013-03-31 02:05:00,
2013-03-30 22:10:00,63.9,45.9,29.82,WNW,293,0.0,0.0,52,0.00,,,0.00,HomebrewedOnLinux,2013-03-31 02:10:00,
2013-03-30 22:15:00,63.7,45.8,29.82,WNW,293,0.0,0.0,52,0.00,,,0.00,HomebrewedOnLinux,2013-03-31 02:15:00,
2013-03-30 22:25:00,63.5,46.1,29.82,WNW,293,0.0,0.0,53,0.00,,,0.00,HomebrewedOnLinux,2013-03-31 02:25:00,
2013-03-30 22:30:00,63.5,46.1,29.82,WNW,293,0.0,0.0,53,0.00,,,0.00,HomebrewedOnLinux,2013-03-31 02:30:00,
2013-03-30 22:40:00,63.5,46.9,29.82,WNW,293,0.0,0.0,55,0.00,,,0.00,HomebrewedOnLinux,2013-03-31 02:40:00,
2013-03-30 22:45:00,63.5,47.0,29.82,WNW,293,0.0,0.0,55,0.00,,,0.00,HomebrewedOnLinux,2013-03-31 02:45:00,
2013-03-30 22:50:00,63.3,46.9,29.82,WNW,293,0.0,0.0,55,0.00,,,0.00,HomebrewedOnLinux,2013-03-31 02:50:00,
2013-03-30 22:55:00,63.3,47.1,29.82,WNW,293,0.0,0.0,55,0.00,,,0.00,HomebrewedOnLinux,2013-03-31 02:55:00,
2013-03-30 23:00:00,63.3,47.4,29.82,WNW,293,0.0,0.0,56,0.00,,,0.00,HomebrewedOnLinux,2013-03-31 03:00:00,
2013-03-30 23:05:00,63.1,47.1,29.82,WNW,293,0.0,0.0,56,0.00,,,0.00,HomebrewedOnLinux,2013-03-31 03:05:00,
2013-03-30 23:10:00,63.1,47.1,29.82,WNW,293,0.0,0.0,56,0.00,,,0.00,HomebrewedOnLinux,2013-03-31 03:10:00,
2013-03-30 23:15:00,63.1,47.2,29.82,WNW,293,0.0,0.0,56,0.00,,,0.00,HomebrewedOnLinux,2013-03-31 03:15:00,
2013-03-30 23:20:00,63.1,47.2,29.82,WNW,293,0.0,0.0,56,0.00,,,0.00,HomebrewedOnLinux,2013-03-31 03:20:00,
2013-03-30 23:30:00,63.1,47.3,29.82,WNW,293,0.0,0.0,56,0.00,,,0.00,HomebrewedOnLinux,2013-03-31 03:30:00,
2013-03-30 23:35:00,63.1,47.4,29.82,NW,316,0.0,0.0,56,0.00,,,0.00,HomebrewedOnLinux,2013-03-31 03:35:00,
2013-03-30 23:40:00,63.1,47.5,29.82,NW,315,0.0,0.0,57,0.00,,,0.00,HomebrewedOnLinux,2013-03-31 03:40:00,
2013-03-30 23:45:00,63.3,47.6,29.82,NW,315,0.0,0.0,56,0.00,,,0.00,HomebrewedOnLinux,2013-03-31 03:45:00,
2013-03-30 23:50:00,63.3,47.6,29.82,WNW,302,0.0,0.0,57,0.00,,,0.00,HomebrewedOnLinux,2013-03-31 03:50:00,
2013-03-30 23:55:00,63.5,47.5,29.82,WNW,293,0.0,0.0,56,0.00,,,0.00,HomebrewedOnLinux,2013-03-31 03:55:00,